Location: Rumah Apan
(2.7833°N, 113.9500°E)
Time: 00:48:28
(UTC+00:00)

Cosmos 1758 Rocket - Pass Details

Date: 25 July 2021
Orbit: 602 x 635 km, 82.5° (Epoch: 22 September)

Event Time Altitude Azimuth Distance (km) Brightness Sun altitude
Rises 11:07:41 0° 170° (S) 2,864 6.7 -7.7°
Reaches altitude 10° 11:10:02 10° 162° (SSE) 1,954 5.8 -8.3°
Maximum altitude 11:14:03 38° 94° (E) 919 4.0 -9.2°
Drops below altitude 10° 11:18:02 10° 25° (NNE) 1,938 6.1 -10.2°
Sets 11:20:20 0° 17° (NNE) 2,837 7.0 -10.7°
